FW7023 Weather Reports


Display with metric or nautical units.
time (UTC)temp
F
wind
direction
speed
MPH
gust
MPH
rain 1hr
in
rain 24hr
in
rain mn
in
humidity
%
barometer
mb
20260510010940 73 131 2.0 2.0 0.00 0.00 0.00 44 1009.0
20260510010437 74 134 0.0 0.0 0.00 0.00 0.00 43 1009.0
20260510005933 74 135 0.0 0.0 0.00 0.00 0.00 43 1009.1
20260510005430 75 144 0.0 0.0 0.00 0.00 0.00 43 1008.9
20260510004927 75 148 0.0 0.0 0.00 0.00 0.00 43 1008.6
20260510004424 75 334 0.0 2.0 0.00 0.00 0.00 42 1008.7
20260510003923 75 113 1.0 1.0 0.00 0.00 0.00 42 1008.4
20260510003419 75 133 1.0 2.0 0.00 0.00 0.00 41 1008.3
20260510002918 76 275 0.0 0.0 0.00 0.00 0.00 41 1008.2
20260510002416 76 151 0.0 0.0 0.00 0.00 0.00 41 1008.2
20260510001912 76 99 1.0 2.0 0.00 0.00 0.00 39 1008.2
20260510001410 76 84 1.0 2.0 0.00 0.00 0.00 40 1008.1
20260510000906 77 85 2.0 2.0 0.00 0.00 0.00 38 1007.9
20260510000404 77 143 0.0 1.0 0.00 0.00 0.00 38 1008.3
20260509235859 78 64 2.0 2.0 0.00 0.00 0.00 37 1008.0
20260509235356 78 65 1.0 2.0 0.00 0.00 0.00 37 1007.8
20260509234852 78 63 1.0 2.0 0.00 0.00 0.00 36 1007.8
20260509234350 78 158 0.0 1.0 0.00 0.00 0.00 37 1007.8
20260509233848 78 33 4.0 7.0 0.00 0.00 0.00 36 1007.7
20260509233345 78 87 2.0 3.0 0.00 0.00 0.00 36 1007.7
20260509232840 78 118 1.0 1.0 0.00 0.00 0.00 37 1007.7
20260509232339 78 193 1.0 2.0 0.00 0.00 0.00 36 1007.7
20260509231834 79 283 1.0 2.0 0.00 0.00 0.00 36 1007.6
20260509231331 80 16 1.0 6.0 0.00 0.00 0.00 34 1007.4
20260509230829 81 95 1.0 1.0 0.00 0.00 0.00 32 1007.5
20260509230326 81 91 2.0 3.0 0.00 0.00 0.00 30 1007.1
20260509225821 81 135 1.0 2.0 0.00 0.00 0.00 29 1007.1
20260509225318 81 160 1.0 2.0 0.00 0.00 0.00 29 1006.9
20260509224814 81 244 3.0 3.0 0.00 0.00 0.00 29 1007.1
20260509224310 81 347 1.0 3.0 0.00 0.00 0.00 29 1007.0
20260509223807 83 199 12.0 15.0 0.00 0.00 0.00 28 1007.2
20260509223304 83 160 1.0 2.0 0.00 0.00 0.00 28 1006.6
20260509222800 84 163 0.0 0.0 0.00 0.00 0.00 28 1006.5
20260509222250 84 272 1.0 3.0 0.00 0.00 0.00 28 1006.9
20260509221746 84 165 0.0 1.0 0.00 0.00 0.00 29 1006.7
20260509221243 84 242 2.0 2.0 0.00 0.00 0.00 27 1006.5
20260509220739 84 170 1.0 1.0 0.00 0.00 0.00 27 1006.5
20260509220236 85 283 3.0 6.0 0.00 0.00 0.00 27 1006.5
20260509215731 86 111 0.0 1.0 0.00 0.00 0.00 26 1006.4
20260509215228 87 115 0.0 0.0 0.00 0.00 0.00 26 1006.5
20260509214725 88 182 2.0 3.0 0.00 0.00 0.00 25 1006.4
20260509214222 87 94 2.0 2.0 0.00 0.00 0.00 25 1006.2
20260509213719 86 154 1.0 2.0 0.00 0.00 0.00 25 1006.2
20260509213214 87 115 1.0 2.0 0.00 0.00 0.00 27 1006.5
20260509212712 87 286 2.0 3.0 0.00 0.00 0.00 27 1006.3
20260509212209 87 325 2.0 2.0 0.00 0.00 0.00 27 1006.4
20260509211705 87 171 3.0 5.0 0.00 0.00 0.00 28 1006.5
20260509211201 87 174 2.0 2.0 0.00 0.00 0.00 29 1006.4
20260509210658 87 161 2.0 3.0 0.00 0.00 0.00 29 1006.4
20260509210155 86 99 1.0 2.0 0.00 0.00 0.00 29 1006.5
20260509205650 87 30 4.0 5.0 0.00 0.00 0.00 29 1006.7
20260509205150 87 129 1.0 1.0 0.00 0.00 0.00 29 1006.6
20260509204646 87 184 3.0 3.0 0.00 0.00 0.00 29 1006.7
20260509204142 87 121 0.0 0.0 0.00 0.00 0.00 32 1006.9
20260509203639 87 190 1.0 2.0 0.00 0.00 0.00 30 1007.0
20260509203137 86 173 1.0 2.0 0.00 0.00 0.00 29 1007.0
20260509202637 86 216 6.0 8.0 0.00 0.00 0.00 29 1007.0
20260509202133 85 160 2.0 3.0 0.00 0.00 0.00 29 1006.9
20260509201627 85 325 5.0 8.0 0.00 0.00 0.00 29 1007.0
20260509201125 86 205 5.0 7.0 0.00 0.00 0.00 30 1007.1
20260509200621 86 89 2.0 3.0 0.00 0.00 0.00 29 1007.2
20260509200111 86 143 3.0 5.0 0.00 0.00 0.00 31 1007.2
20260509195607 86 109 3.0 5.0 0.00 0.00 0.00 29 1007.1
20260509195101 85 160 0.0 1.0 0.00 0.00 0.00 32 1007.4
20260509194601 85 226 2.0 5.0 0.00 0.00 0.00 30 1007.3
20260509194059 86 191 2.0 3.0 0.00 0.00 0.00 31 1007.3
20260509193554 86 175 0.0 1.0 0.00 0.00 0.00 32 1007.5
20260509193051 85 320 2.0 3.0 0.00 0.00 0.00 30 1007.7
20260509192548 85 1 1.0 2.0 0.00 0.00 0.00 31 1007.6
20260509192042 85 178 2.0 3.0 0.00 0.00 0.00 31 1007.6
20260509191537 85 162 0.0 0.0 0.00 0.00 0.00 33 1007.5
20260509191033 84 152 2.0 3.0 0.00 0.00 0.00 33 1007.5
20260509190530 84 288 3.0 5.0 0.00 0.00 0.00 32 1007.5
20260509190029 84 71 1.0 2.0 0.00 0.00 0.00 32 1007.8
20260509185526 84 179 1.0 2.0 0.00 0.00 0.00 34 1007.7
20260509185021 84 170 1.0 2.0 0.00 0.00 0.00 35 1007.8
20260509184520 84 43 7.0 10.0 0.00 0.00 0.00 32 1007.9
20260509184016 84 209 2.0 3.0 0.00 0.00 0.00 34 1007.8
20260509183511 84 165 0.0 0.0 0.00 0.00 0.00 35 1008.0
20260509183007 83 181 0.0 1.0 0.00 0.00 0.00 36 1007.8
20260509182504 83 222 2.0 2.0 0.00 0.00 0.00 33 1008.0
20260509182001 83 168 1.0 1.0 0.00 0.00 0.00 34 1008.1
20260509181459 82 340 0.0 1.0 0.00 0.00 0.00 36 1008.3
20260509180956 82 204 3.0 6.0 0.00 0.00 0.00 34 1008.2
20260509180451 82 202 3.0 5.0 0.00 0.00 0.00 38 1008.3
20260509175949 82 244 0.0 1.0 0.00 0.00 0.00 37 1008.3
20260509175445 80 210 0.0 1.0 0.00 0.00 0.00 39 1008.5
20260509174941 81 283 3.0 5.0 0.00 0.00 0.00 37 1008.3
20260509174437 82 176 0.0 0.0 0.00 0.00 0.00 40 1008.6
20260509173933 81 26 1.0 2.0 0.00 0.00 0.00 37 1008.6
20260509173427 80 161 0.0 0.0 0.00 0.00 0.00 38 1008.6
20260509172924 80 136 1.0 2.0 0.00 0.00 0.00 38 1008.5
20260509172421 81 224 1.0 1.0 0.00 0.00 0.00 37 1008.6
20260509171916 80 168 1.0 2.0 0.00 0.00 0.00 38 1008.9
20260509171413 81 160 1.0 3.0 0.00 0.00 0.00 37 1008.9
20260509170909 80 166 0.0 1.0 0.00 0.00 0.00 39 1008.8
20260509170405 79 193 1.0 2.0 0.00 0.00 0.00 40 1008.8
20260509165901 80 230 3.0 5.0 0.00 0.00 0.00 38 1009.1
20260509165355 80 199 2.0 3.0 0.00 0.00 0.00 40 1009.0
20260509164851 79 135 0.0 0.0 0.00 0.00 0.00 38 1008.9
20260509164347 79 159 1.0 2.0 0.00 0.00 0.00 41 1008.9
20260509163843 78 165 0.0 1.0 0.00 0.00 0.00 39 1008.8
20260509163340 78 262 3.0 3.0 0.00 0.00 0.00 39 1009.0
20260509162839 78 153 0.0 0.0 0.00 0.00 0.00 40 1009.1
20260509162338 77 151 0.0 1.0 0.00 0.00 0.00 42 1009.0
20260509161834 77 129 0.0 0.0 0.00 0.00 0.00 43 1009.0
20260509161331 77 227 2.0 3.0 0.00 0.00 0.00 40 1008.8
20260509160826 77 180 2.0 3.0 0.00 0.00 0.00 43 1009.2
20260509160322 76 162 1.0 2.0 0.00 0.00 0.00 43 1008.9
20260509155818 77 200 1.0 3.0 0.00 0.00 0.00 44 1008.9
20260509155315 76 156 0.0 0.0 0.00 0.00 0.00 45 1009.0
20260509154811 75 171 1.0 2.0 0.00 0.00 0.00 43 1008.7
20260509154308 75 1 2.0 2.0 0.00 0.00 0.00 44 1009.0
20260509153805 74 132 1.0 1.0 0.00 0.00 0.00 44 1008.9
20260509153301 75 173 1.0 2.0 0.00 0.00 0.00 45 1009.0
20260509152758 74 161 1.0 1.0 0.00 0.00 0.00 46 1009.0
20260509152254 74 192 1.0 2.0 0.00 0.00 0.00 48 1008.9
20260509151751 74 346 1.0 2.0 0.00 0.00 0.00 46 1008.7
20260509151247 73 157 0.0 0.0 0.00 0.00 0.00 50 1009.0
20260509150746 73 153 1.0 2.0 0.00 0.00 0.00 47 1008.8
20260509150244 73 164 0.0 0.0 0.00 0.00 0.00 50 1008.7
20260509145740 72 151 0.0 0.0 0.00 0.00 0.00 52 1008.7
20260509145239 71 159 0.0 0.0 0.00 0.00 0.00 52 1008.8
20260509144737 71 174 1.0 2.0 0.00 0.00 0.00 55 1008.9
20260509144233 70 80 1.0 2.0 0.00 0.00 0.00 56 1008.9
20260509143731 69 145 1.0 1.0 0.00 0.00 0.00 59 1008.6
20260509143228 68 298 1.0 1.0 0.00 0.00 0.00 61 1008.9
20260509142724 68 174 0.0 0.0 0.00 0.00 0.00 63 1009.0
20260509142221 66 140 1.0 1.0 0.00 0.00 0.00 67 1008.9
20260509141716 65 169 1.0 1.0 0.00 0.00 0.00 69 1008.7
20260509141214 65 304 1.0 3.0 0.00 0.00 0.00 70 1008.9
20260509140710 64 196 2.0 2.0 0.00 0.00 0.00 71 1009.0
20260509140208 63 174 1.0 1.0 0.00 0.00 0.00 73 1008.8
20260509135705 63 151 2.0 2.0 0.00 0.00 0.00 75 1009.0
20260509135203 62 182 1.0 1.0 0.00 0.00 0.00 76 1008.8
20260509134659 62 157 1.0 2.0 0.00 0.00 0.00 77 1008.9
20260509134157 61 269 1.0 1.0 0.00 0.00 0.00 78 1009.0
20260509133653 60 171 1.0 1.0 0.00 0.00 0.00 80 1009.1
20260509133151 60 164 0.0 0.0 0.00 0.00 0.00 83 1008.8
20260509132649 59 164 0.0 0.0 0.00 0.00 0.00 87 1009.0
20260509132147 58 205 4.0 5.0 0.00 0.00 0.00 93 1008.7
20260509131643 57 163 0.0 0.0 0.00 0.00 0.00 96 1009.0
20260509131140 57 147 0.0 0.0 0.00 0.00 0.00 97 1008.7
20260509130636 56 220 0.0 0.0 0.00 0.00 0.00 98 1008.7
20260509130132 56 142 0.0 1.0 0.00 0.00 0.00 98 1008.6
20260509125629 55 164 0.0 0.0 0.00 0.00 0.00 99 1008.5
20260509125126 55 122 1.0 1.0 0.00 0.00 0.00 99 1008.5
20260509124622 54 126 0.0 1.0 0.00 0.00 0.00 99 1008.3
20260509124119 54 139 0.0 0.0 0.00 0.00 0.00 99 1008.3
20260509123617 53 131 0.0 0.0 0.00 0.00 0.00 99 1008.5
20260509123114 52 152 0.0 0.0 0.00 0.00 0.00 99 1008.3
20260509122610 51 145 0.0 0.0 0.00 0.00 0.00 99 1008.4
20260509122107 51 144 0.0 0.0 0.00 0.00 0.00 99 1008.6
20260509121604 51 146 0.0 0.0 0.00 0.00 0.00 99 1008.3
20260509121101 50 146 0.0 0.0 0.00 0.00 0.00 98 1008.2
20260509120559 50 146 0.0 0.0 0.00 0.00 0.00 98 1008.3
20260509120057 50 145 0.0 0.0 0.00 0.00 0.00 98 1008.2
20260509115554 51 146 0.0 0.0 0.00 0.00 0.00 98 1008.1
20260509115052 51 146 0.0 0.0 0.00 0.00 0.00 98 1008.1
20260509114550 51 155 0.0 0.0 0.00 0.00 0.00 99 1007.9
20260509114048 50 133 0.0 0.0 0.00 0.00 0.00 99 1008.0
20260509113546 50 133 0.0 0.0 0.00 0.00 0.00 98 1007.6
20260509113044 50 132 0.0 0.0 0.00 0.00 0.00 99 1007.8
20260509112540 49 132 0.0 0.0 0.00 0.00 0.00 98 1007.6
20260509112037 49 132 0.0 0.0 0.00 0.00 0.00 98 1007.6
20260509111534 49 132 0.0 0.0 0.00 0.00 0.00 98 1007.5
20260509111031 49 132 0.0 0.0 0.00 0.00 0.00 98 1007.5
20260509110528 49 132 0.0 0.0 0.00 0.00 0.00 98 1007.3
20260509110025 49 132 0.0 0.0 0.00 0.00 0.00 98 1007.5
20260509105523 49 132 0.0 0.0 0.00 0.00 0.00 98 1007.7
20260509105021 50 132 0.0 0.0 0.00 0.00 0.00 98 1007.6
20260509104517 50 131 0.0 0.0 0.00 0.00 0.00 98 1007.4
20260509104014 50 131 0.0 0.0 0.00 0.00 0.00 98 1007.6
20260509103512 50 144 0.0 0.0 0.00 0.00 0.00 98 1007.6
20260509103010 51 135 0.0 0.0 0.00 0.00 0.00 98 1007.5
20260509102507 50 163 0.0 0.0 0.00 0.00 0.00 98 1007.6
20260509102004 51 163 0.0 0.0 0.00 0.00 0.00 98 1007.4
20260509101500 51 162 0.0 0.0 0.00 0.00 0.00 98 1007.6
20260509100957 50 163 0.0 0.0 0.00 0.00 0.00 98 1007.5
20260509100454 51 163 0.0 0.0 0.00 0.00 0.00 98 1007.7
20260509095951 51 164 0.0 0.0 0.00 0.00 0.00 98 1007.7
20260509095448 51 164 0.0 0.0 0.00 0.00 0.00 98 1007.8
20260509094945 52 164 0.0 0.0 0.00 0.00 0.00 98 1007.8
20260509094441 52 164 0.0 0.0 0.00 0.00 0.00 98 1007.8
20260509093939 52 162 0.0 0.0 0.00 0.00 0.00 98 1007.8
20260509093436 51 161 0.0 0.0 0.00 0.00 0.00 98 1007.9
20260509092934 51 153 0.0 0.0 0.00 0.00 0.00 98 1007.8
20260509092432 51 152 0.0 0.0 0.00 0.00 0.00 98 1007.6
20260509091931 51 152 0.0 0.0 0.00 0.00 0.00 98 1007.6
20260509091427 51 152 0.0 0.0 0.00 0.00 0.00 98 1007.7
20260509090924 51 152 0.0 0.0 0.00 0.00 0.00 98 1007.6
20260509090421 51 152 0.0 0.0 0.00 0.00 0.00 98 1007.6
20260509085919 52 152 0.0 0.0 0.00 0.00 0.00 98 1007.5
20260509085416 52 152 0.0 0.0 0.00 0.00 0.00 98 1007.7
20260509084911 52 168 0.0 0.0 0.00 0.00 0.00 99 1007.4
20260509084409 52 163 0.0 0.0 0.00 0.00 0.00 98 1007.5
20260509083906 52 157 0.0 0.0 0.00 0.00 0.00 98 1007.4
20260509083403 51 164 0.0 0.0 0.00 0.00 0.00 98 1007.6
20260509082900 51 165 0.0 0.0 0.00 0.00 0.00 98 1007.5
20260509082357 51 138 0.0 0.0 0.00 0.00 0.00 98 1007.2
20260509081854 51 139 0.0 0.0 0.00 0.00 0.00 98 1007.6
20260509081351 51 157 0.0 0.0 0.00 0.00 0.00 98 1007.5
20260509080849 51 156 0.0 1.0 0.00 0.00 0.00 98 1007.6
20260509080346 50 171 0.0 0.0 0.00 0.00 0.00 98 1007.2
20260509075845 51 170 0.0 0.0 0.00 0.00 0.00 97 1007.3
20260509075341 51 170 0.0 0.0 0.00 0.00 0.00 98 1007.5
20260509074838 51 170 0.0 0.0 0.00 0.00 0.00 98 1007.4
20260509074336 51 170 0.0 0.0 0.00 0.00 0.00 97 1007.6
20260509073832 51 170 0.0 0.0 0.00 0.00 0.00 98 1007.7
20260509073329 51 170 0.0 0.0 0.00 0.00 0.00 98 1007.6
20260509072825 51 170 0.0 0.0 0.00 0.00 0.00 98 1007.7
20260509072322 50 170 0.0 0.0 0.00 0.00 0.00 98 1007.7
20260509071819 50 170 0.0 0.0 0.00 0.00 0.00 98 1007.8
20260509071316 50 170 0.0 0.0 0.00 0.00 0.00 97 1007.8
20260509070813 50 170 0.0 0.0 0.00 0.00 0.00 97 1007.9
20260509070309 50 170 0.0 0.0 0.00 0.00 0.00 97 1008.0
20260509065805 50 166 0.0 0.0 0.00 0.00 0.00 97 1008.0
20260509065305 50 165 0.0 0.0 0.00 0.00 0.00 97 1008.0
20260509064758 50 173 0.0 0.0 0.00 0.00 0.00 97 1007.9
20260509064256 50 172 0.0 0.0 0.00 0.00 0.00 97 1007.8
20260509063753 50 169 0.0 0.0 0.00 0.00 0.00 97 1008.0
20260509063249 50 169 0.0 0.0 0.00 0.00 0.00 97 1008.1
20260509062747 50 170 0.0 0.0 0.00 0.00 0.00 97 1008.0
20260509062244 50 169 0.0 0.0 0.00 0.00 0.00 97 1008.3
20260509061740 50 168 0.0 0.0 0.00 0.00 0.00 97 1008.2
20260509061239 50 168 0.0 0.0 0.00 0.00 0.00 97 1008.1
20260509060735 50 169 0.0 0.0 0.00 0.00 0.00 97 1008.2
20260509060232 50 167 0.0 0.0 0.00 0.00 0.00 97 1008.2
20260509055727 50 182 0.0 0.0 0.00 0.00 0.00 97 1008.3
20260509055224 50 165 0.0 0.0 0.00 0.00 0.00 97 1008.1
20260509054720 50 165 0.0 0.0 0.00 0.00 0.00 97 1008.2
20260509054218 50 165 0.0 0.0 0.00 0.00 0.00 97 1008.4
20260509053716 50 165 0.0 0.0 0.00 0.00 0.00 97 1008.4
20260509053213 50 165 0.0 0.0 0.00 0.00 0.00 97 1008.4
20260509052711 50 165 0.0 0.0 0.00 0.00 0.00 97 1008.2
20260509052208 50 165 0.0 0.0 0.00 0.00 0.00 97 1008.2
20260509051705 50 165 0.0 0.0 0.00 0.00 0.00 97 1008.2
20260509051203 50 164 0.0 0.0 0.00 0.00 0.00 96 1008.4
20260509050700 50 164 0.0 0.0 0.00 0.00 0.00 96 1008.3
20260509050156 51 164 0.0 0.0 0.00 0.00 0.00 96 1008.4
20260509045654 51 164 0.0 0.0 0.00 0.01 0.01 96 1008.5
20260509045150 51 164 0.0 0.0 0.00 0.01 0.01 96 1008.5
20260509044648 51 164 0.0 0.0 0.00 0.01 0.01 96 1008.4
20260509044145 51 164 0.0 0.0 0.00 0.01 0.01 96 1008.2
20260509043641 51 164 0.0 0.0 0.00 0.01 0.01 96 1008.4
20260509043137 51 164 0.0 0.0 0.00 0.01 0.01 96 1008.4
20260509042634 51 164 0.0 0.0 0.00 0.01 0.01 96 1008.5
20260509042129 52 164 0.0 0.0 0.00 0.01 0.01 96 1008.4
20260509041626 52 164 0.0 0.0 0.00 0.01 0.01 96 1008.3
20260509041124 52 164 0.0 0.0 0.00 0.01 0.01 96 1008.5
20260509040623 52 165 0.0 0.0 0.00 0.01 0.01 96 1008.7
20260509040119 52 160 0.0 0.0 0.00 0.01 0.01 96 1008.5
20260509035616 53 160 0.0 0.0 0.00 0.01 0.01 96 1008.4
20260509035112 53 160 0.0 0.0 0.00 0.01 0.01 96 1008.6
20260509034610 53 160 0.0 0.0 0.00 0.01 0.01 95 1008.7
20260509034107 53 160 0.0 0.0 0.00 0.01 0.01 95 1008.5
20260509033604 53 160 0.0 0.0 0.00 0.01 0.01 95 1008.4
20260509033101 53 160 0.0 0.0 0.00 0.01 0.01 95 1008.4
20260509032558 53 160 0.0 0.0 0.00 0.01 0.01 95 1008.6
20260509032055 53 160 0.0 0.0 0.00 0.01 0.01 95 1008.5
20260509031553 54 160 0.0 0.0 0.00 0.01 0.01 95 1008.5
20260509031050 54 160 0.0 0.0 0.00 0.01 0.01 95 1008.5
20260509030548 54 160 0.0 0.0 0.00 0.01 0.01 95 1008.3
20260509030044 54 160 0.0 0.0 0.00 0.01 0.01 95 1008.3
20260509025541 54 160 0.0 0.0 0.00 0.01 0.01 94 1008.3
20260509025037 55 160 0.0 0.0 0.00 0.01 0.01 94 1008.3
20260509024533 55 160 0.0 0.0 0.00 0.01 0.01 94 1008.2
20260509024029 55 160 0.0 0.0 0.00 0.01 0.01 94 1008.2
20260509023527 55 160 0.0 0.0 0.00 0.01 0.01 94 1008.2
20260509023023 55 160 0.0 0.0 0.00 0.01 0.01 94 1008.1
20260509022520 55 161 0.0 0.0 0.00 0.01 0.01 93 1007.8
20260509022018 56 160 0.0 0.0 0.00 0.01 0.01 93 1008.1
20260509021514 56 160 0.0 0.0 0.00 0.01 0.01 93 1008.0
20260509021011 56 160 0.0 0.0 0.00 0.01 0.01 93 1008.0
20260509020509 56 160 0.0 0.0 0.00 0.01 0.01 92 1007.9
20260509020006 57 160 0.0 0.0 0.00 0.01 0.01 92 1007.9
20260509015505 57 160 0.0 0.0 0.00 0.01 0.01 92 1007.7
20260509015002 57 160 0.0 0.0 0.00 0.01 0.01 91 1007.6
20260509014458 57 168 0.0 0.0 0.00 0.01 0.01 91 1007.7
20260509013954 58 168 0.0 0.0 0.00 0.01 0.01 90 1007.5
20260509013452 58 168 0.0 0.0 0.00 0.01 0.01 90 1007.5
20260509012947 58 168 0.0 0.0 0.00 0.01 0.01 90 1007.6
20260509012444 59 166 0.0 0.0 0.00 0.01 0.01 89 1007.5
20260509011941 59 166 0.0 0.0 0.00 0.01 0.01 88 1007.7
20260509011439 59 166 0.0 0.0 0.00 0.01 0.01 88 1007.2